SCP
0 0 1 1 1 1 1 1 1 1 0 1 1 1 1 0 0 0 0 0 0 0 0 0 0 0 0 0 0 0 0 0 0 0 0 0 0 0
0 0 0 1 1 1 1 1 1 1 1 1 1 1 1 0 0 0 0 0 0 0 0 0 0 0 0 0 0 0 0 0 0 0 0 0 0 0
0 0 0 0 1 1 1 1 1 1 1 1 1 1 1 1 0 0 0 0 0 0 0 0 0 0 0 0 0 0 0 0 0 0 0 0 0 0
0 0 0 0 0 0 0 0 0 0 1 1 1 1 1 1 1 0 0 0 0 0 0 0 0 0 0 0 0 0 0 0 0 0 0 0 0 0
0 0 0 0 0 0 0 0 0 0 0 1 1 1 1 1 1 0 0 0 0 0 0 0 0 0 0 0 0 0 0 0 0 0 0 0 0 0
0 0 0 0 0 0 0 0 0 0 0 0 0 1 1 1 0 0 0 0 0 0 0 0 0 0 0 0 0 0 0 0 0 0 0 0 0 0
0 0 0 0 0 0 0 0 0 0 0 0 0 0 0 0 0 0 0 0 0 0 0 0 0 0 0 0 0 0 0 0 0 0 0 0 0 0
0 0 0 0 0 0 0 0 0 0 0 0 0 0 0 0 0 0 0 0 0 0 0 0 0 0 0 0 0 0 0 0 0 0 0 0 0 0
0 0 0 0 0 0 0 0 0 0 0 0 0 0 0 0 0 0 0 0 0 0 0 0 0 0 0 0 0 0 0 0 0 0 0 0 0 0
0 0 0 0 0 0 0 0 0 0 0 0 0 0 0 0 0 0 0 0 0 0 0 0 0 0 0 0 0 0 0 0 0 0 0 0 0 0
0 0 0 0 0 0 0 0 0 0 0 0 0 0 0 0 0 0 0 0 0 0 0 0 0 0 0 0 0 0 0 0 0 0 0 0 0 0
0 0 0 0 0 0 0 0 0 0 0 0 0 0 0 0 0 0 0 0 0 0 0 0 0 0 0 0 0 0 0 0 0 0 0 0 0 0
0 0 0 0 0 0 0 0 0 0 0 0 0 0 0 0 0 0 0 0 0 0 0 0 0 0 0 0 0 0 0 0 0 0 0 0 0 0
0 0 0 0 0 0 0 0 0 0 0 0 0 0 0 0 0 0 0 0 0 0 0 0 0 0 0 0 0 0 0 0 0 0 0 0 0 0
0 0 0 0 0 0 0 0 0 0 0 0 0 0 0 0 0 0 0 0 0 0 0 0 0 0 0 0 0 0 0 0 0 0 0 0 0 0
0 0 0 0 0 0 0 0 0 0 0 0 0 0 0 0 0 0 0 0 0 0 0 0 0 0 0 0 0 0 0 0 0 0 0 0 0 0
0 0 0 0 0 0 0 0 0 0 0 0 0 0 0 0 0 0 0 0 0 0 0 0 0 0 0 0 0 0 0 0 0 0 0 0 0 0
0 0 0 0 0 0 0 0 0 0 0 0 0 0 0 0 0 0 0 0 0 0 0 0 0 0 0 0 0 0 0 0 0 0 0 0 0 0
0 0 0 0 0 0 0 0 0 0 0 0 0 0 0 0 0 0 0 0 0 0 0 0 0 0 0 0 0 0 0 0 0 0 0 0 0 0
0 0 0 0 0 0 0 0 0 0 0 0 0 0 0 0 0 0 0 0 0 0 0 0 0 0 0 0 0 0 0 0 0 0 0 0 0 0
0 0 0 0 0 0 0 0 0 0 0 0 0 0 0 0 0 0 0 0 0 0 0 0 0 0 0 0 0 0 0 0 0 0 0 0 0 0
0 0 0 0 0 0 0 0 0 0 0 0 0 0 0 0 0 0 0 0 0 0 0 0 0 0 0 0 0 0 0 0 0 0 0 0 0 0
0 0 0 0 0 0 0 0 0 0 0 0 0 0 0 0 0 0 0 0 0 0 0 0 0 0 0 0 0 0 0 0 0 0 0 0 0 0
Wind_Speed
3 3 3 3 3 3 2 1 2 2 3 3 3 4 4 6 10 6 6 9 10 9 8 8 8 8 9 9 10 10 11 11 12 13 14 15 16 18
3 4 3 3 3 3 2 2 2 2 2 2 2 4 5 6 8 6 6 10 9 9 8 8 8 8 8 9 9 10 10 11 11 12 12 13 14 15
4 4 4 4 3 2 2 2 2 2 3 2 1 3 4 5 5 4 6 5 5 8 8 7 7 7 7 7 8 9 9 9 10 10 11 12 12 14
5 5 5 4 4 3 3 3 3 2 3 3 2 3 3 5 6 5 5 5 4 7 8 7 6 5 5 6 6 7 7 7 8 9 9 10 11 12
5 5 5 4 4 3 4 4 3 4 3 3 4 3 3 4 5 5 4 3 4 6 8 7 6 5 4 4 4 4 5 6 6 7 7 8 9 9
5 5 5 5 5 4 5 4 4 4 4 3 4 4 4 5 5 5 4 3 3 4 5 6 6 6 4 3 2 2 3 4 4 5 6 6 6 7
6 5 6 6 6 4 4 3 4 4 4 4 4 4 4 5 6 5 5 4 4 4 4 4 4 3 3 3 3 2 2 2 3 4 4 4 4 5
6 6 6 6 7 7 7 5 4 4 4 3 4 4 5 6 5 6 5 5 4 4 4 3 3 3 3 4 4 4 4 3 4 4 4 5 5 6
6 5 7 8 8 6 9 10 8 8 7 4 5 4 4 4 4 5 5 5 4 5 5 3 3 4 4 5 7 6 6 5 5 6 6 7 7 8
6 6 6 7 7 5 5 7 7 8 9 7 5 5 4 3 4 4 4 3 3 3 4 3 3 4 4 4 6 7 7 7 7 8 8 9 10 9
7 8 8 8 8 8 5 5 5 5 9 11 10 8 7 5 4 3 4 5 4 3 3 4 4 4 3 3 4 7 8 8 8 9 10 11 12 11
6 6 9 9 9 9 7 6 6 5 5 5 7 7 7 7 9 7 6 6 4 4 5 5 5 5 4 3 3 3 4 7 8 9 9 9 9 7
5 5 5 8 10 11 9 6 6 4 3 4 4 5 6 6 7 7 7 6 6 4 6 6 6 5 4 4 3 3 3 3 4 5 6 6 6 6
4 3 3 6 9 10 9 7 6 4 3 4 4 5 5 6 6 7 8 7 6 5 7 6 5 6 6 5 4 4 4 4 4 4 4 5 5 7
3 1 3 6 7 8 10 9 7 5 5 6 6 6 5 6 5 5 5 5 5 5 7 5 5 6 6 5 6 6 5 4 4 5 5 4 4 4
5 4 6 7 6 6 6 7 7 6 6 6 6 5 4 5 5 5 5 5 5 3 4 5 5 6 5 6 7 7 6 6 6 5 5 4 4 4
3 4 4 5 6 6 6 6 7 7 7 6 5 5 5 5 5 5 5 6 6 6 5 4 3 4 4 6 7 7 6 6 6 6 6 5 4 4
2 3 4 4 5 6 6 6 7 7 7 6 6 5 5 5 5 5 5 6 6 6 6 6 6 5 4 3 3 6 5 6 6 6 5 5 5 4
3 4 4 4 5 5 5 6 6 6 6 6 6 6 5 5 5 6 6 6 6 7 7 7 7 7 7 6 3 3 6 6 6 5 4 4 5 5
4 5 4 4 4 3 4 4 4 4 5 5 5 6 6 5 6 6 6 7 7 7 7 6 7 7 7 7 5 4 6 8 7 6 5 4 4 6
4 3 3 3 3 3 3 3 3 4 4 5 5 6 6 6 6 7 6 8 7 7 8 7 6 8 5 6 7 5 3 3 5 6 7 6 5 4
3 3 3 3 2 2 2 3 3 3 4 5 5 5 5 5 7 7 7 7 6 6 7 6 7 6 5 7 8 8 6 4 5 8 7 5 5 6
2 2 3 3 3 2 2 3 4 3 3 4 4 5 5 5 5 5 6 6 6 7 7 7 6 5 5 6 8 8 10 8 6 5 3 4 4 5
Wind_Direction
241 240 247 266 271 277 279 248 206 201 203 202 169 158 143 126 153 159 151 167 174 183 192 199 206 211 216 219 222 226 228 228 229 230 228 226 225 224
230 231 227 234 259 275 271 270 251 216 216 209 174 150 148 147 165 156 147 160 171 180 188 196 204 211 218 220 222 224 226 228 229 229 227 225 224 224
230 229 229 227 222 243 263 257 246 229 220 228 177 143 144 141 152 151 151 165 171 182 184 188 195 206 215 220 222 222 223 224 227 229 229 228 225 223
225 226 229 233 223 225 231 249 252 243 221 216 188 163 165 155 160 168 175 179 154 165 171 175 182 194 204 212 215 215 216 219 222 225 226 227 225 222
226 226 225 224 225 229 226 227 236 245 227 209 201 183 183 180 166 177 183 157 157 157 157 158 159 160 168 183 196 203 208 215 220 223 225 226 223 221
232 230 230 226 222 224 235 228 227 235 236 224 204 191 191 187 173 175 174 166 175 169 142 144 147 147 143 146 161 181 194 204 212 217 219 218 215 211
228 227 230 228 223 217 236 223 229 228 225 224 214 197 199 187 188 187 181 169 178 165 146 143 142 134 129 115 99 96 128 161 176 184 187 183 184 186
229 229 229 226 220 216 214 209 207 227 235 230 227 209 203 200 193 194 180 174 179 166 151 141 133 117 97 81 81 93 99 111 130 139 146 151 152 155
225 228 241 237 213 209 211 211 215 220 216 224 243 240 218 201 191 193 188 183 177 156 141 137 122 102 87 79 76 80 87 97 107 116 123 125 124 123
222 218 225 241 240 225 225 217 210 210 208 209 223 239 246 222 194 199 190 169 141 149 142 134 128 110 100 85 73 81 89 97 104 109 112 115 113 110
230 224 221 223 224 220 223 233 231 226 219 212 206 216 227 217 188 172 171 165 169 170 157 138 135 123 112 102 90 88 91 97 103 108 111 114 114 106
235 233 232 228 213 210 213 219 229 233 240 221 208 214 219 216 200 190 187 180 172 174 171 148 148 143 134 122 123 117 99 94 100 105 114 122 126 116
233 225 220 211 203 205 209 214 223 230 242 241 221 206 206 206 203 196 194 190 186 184 168 159 158 159 140 139 140 141 133 131 118 107 109 113 116 120
246 228 197 190 193 200 208 214 205 206 234 236 228 214 208 204 201 196 194 195 193 184 168 166 160 164 147 146 148 151 148 147 139 134 133 116 98 102
268 202 171 186 186 199 214 210 202 212 225 228 227 220 210 204 191 184 181 176 175 180 172 170 159 160 156 150 147 153 152 159 156 148 147 148 143 133
237 218 193 196 211 223 204 205 212 221 220 223 224 218 206 194 185 176 175 167 159 158 154 157 160 162 156 144 146 153 157 159 162 156 150 148 149 146
230 212 213 206 211 216 215 209 209 212 218 222 221 213 205 195 184 174 172 167 168 166 156 144 126 122 130 141 149 156 157 153 157 157 151 147 149 144
248 228 230 232 230 223 217 215 214 215 212 207 209 209 205 194 179 173 170 170 169 166 160 154 144 130 112 71 128 154 156 152 152 155 154 146 143 133
238 243 239 236 238 231 222 218 217 214 207 204 203 200 195 187 175 173 173 170 168 164 162 161 163 161 159 158 159 170 158 150 150 155 159 147 144 144
242 247 243 240 242 235 227 223 216 207 200 200 197 194 191 184 177 174 173 171 167 162 163 168 176 177 172 158 146 152 159 155 157 158 150 121 100 103
243 241 243 246 244 231 223 220 205 199 199 195 191 186 185 181 179 176 172 167 166 168 172 175 174 160 132 123 129 130 123 125 151 155 148 138 136 145
252 243 240 242 246 226 203 205 204 198 197 190 184 177 176 176 176 170 167 166 168 167 163 154 148 149 146 152 150 145 139 128 101 103 107 129 157 169
269 265 246 236 231 212 195 195 192 182 181 177 168 163 162 164 165 160 159 160 161 159 154 152 154 158 160 155 151 150 150 150 145 132 99 52 89 139